Weather History for KCGC - February, 2014

Change the Weather History Date:

Sunday, February 2, 2014

  Actual Average (KGNV) Record (KGNV)
Temperature  
Mean Temperature 70 °F 56 °F  
Max Temperature 80 °F 68 °F 85 °F (1950)
Min Temperature 60 °F 44 °F 25 °F (1980)
Degree Days  
Heating Degree Days 0 10  
Month to date heating degree days 20  
Since 1 July heating degree days 822  
Cooling Degree Days 5 0  
Month to date cooling degree days 0  
Year to date cooling degree days 12  
Growing Degree Days 20 (Base 50)    
Moisture  
Dew Point 63 °F    
Average Humidity 88    
Maximum Humidity 100    
Minimum Humidity 58    
Precipitation  
Precipitation 0.00 in 0.12 in 1.67 in (1917)
Month to date precipitation 0.23  
Year to date precipitation 3.54  
Snow  
Snow 0.00 in 0.00 in 0.00 in ()
Month to date snowfall 0.0  
Since 1 July snowfall 0.0  
Snow Depth -    
Sea Level Pressure  
Sea Level Pressure 30.11 in    
Wind  
Wind Speed 1 mph (WNW)    
Max Wind Speed 9 mph    
Max Gust Speed -    
Visibility 6 miles    
Events Fog    
T = Trace of Precipitation, MM = Missing Value Source: NWS Daily Summary

Daily Weather History Graph

Daily Weather History Graph

Search for Another Location

Airport or City:

Trip Planner

Search our weather history database for the weather conditions in past years. The results will help you decide how hot, cold, wet, or windy it might be!

Date:

Astronomy

Feb. 02, 2014 Rise Set
Actual Time 7:18 AM EST 6:10 PM EST
Civil Twilight 6:53 AM EST 6:34 PM EST
Nautical Twilight 6:25 AM EST 7:03 PM EST
Astronomical Twilight 5:57 AM EST 7:31 PM EST
Moon 9:03 AM EST (2/2) 9:31 PM EST (2/2)
Length of Visible Light 11h 41m
Length of Day
10h 52m
Waxing Crescent, 11% of the Moon is Illuminated
Feb 2
Waxing Crescent
Feb 6
First Quarter
Feb 14
Full
Feb 22
Last Quarter
Mar 1
New

Hourly Weather History & Observations

Time (EST) Temp. Heat Index Dew Point Humidity Pressure Visibility Wind Dir Wind Speed Gust Speed Precip Events Conditions
12:15 AM 62.6 °F - 62.6 °F 100% 30.14 in 0.2 mi Calm Calm - N/A Fog Fog
12:35 AM 62.6 °F - 62.6 °F 100% 30.14 in 0.2 mi Calm Calm - N/A Fog Fog
12:55 AM 62.6 °F - 62.6 °F 100% 30.14 in 0.2 mi Calm Calm - N/A Fog Fog
1:15 AM 62.6 °F - 62.6 °F 100% 30.14 in 0.2 mi Calm Calm - N/A Fog Fog
1:35 AM 62.6 °F - 62.6 °F 100% 30.14 in 0.2 mi Calm Calm - N/A Fog Fog
1:55 AM 62.6 °F - 62.6 °F 100% 30.13 in 0.2 mi Calm Calm - N/A Fog Fog
2:15 AM 62.6 °F - 62.6 °F 100% 30.13 in 0.2 mi Calm Calm - N/A Fog Fog
2:35 AM 62.6 °F - 62.6 °F 100% 30.13 in 0.2 mi Calm Calm - N/A Fog Fog
2:55 AM 62.6 °F - 62.6 °F 100% 30.12 in 0.2 mi Calm Calm - N/A Fog Fog
3:15 AM 62.6 °F - 62.6 °F 100% 30.12 in 0.2 mi Calm Calm - N/A Fog Fog
3:35 AM 62.6 °F - 62.6 °F 100% 30.11 in 0.2 mi Calm Calm - N/A Fog Fog
3:55 AM 62.6 °F - 62.6 °F 100% 30.11 in 0.2 mi Calm Calm - N/A Fog Fog
4:15 AM 62.6 °F - 62.6 °F 100% 30.11 in 0.2 mi Calm Calm - N/A Fog Fog
4:35 AM 62.6 °F - 62.6 °F 100% 30.11 in 0.2 mi Calm Calm - N/A Fog Fog
4:55 AM 62.6 °F - 60.8 °F 94% 30.11 in 0.2 mi Calm Calm - N/A Fog Fog
5:15 AM 62.6 °F - 60.8 °F 94% 30.11 in 0.2 mi Calm Calm - N/A Fog Fog
5:35 AM 62.6 °F - 60.8 °F 94% 30.11 in 0.5 mi Calm Calm - N/A Fog Fog
5:55 AM 62.6 °F - 60.8 °F 94% 30.12 in 0.2 mi Calm Calm - N/A Fog Fog
6:15 AM 62.6 °F - 60.8 °F 94% 30.13 in 0.5 mi Calm Calm - N/A Fog Fog
6:35 AM 60.8 °F - 60.8 °F 100% 30.13 in 0.5 mi Calm Calm - N/A Fog Fog
6:55 AM 60.8 °F - 60.8 °F 100% 30.14 in 0.5 mi Calm Calm - N/A Fog Fog
7:15 AM 60.8 °F - 60.8 °F 100% 30.14 in 1.8 mi Calm Calm - N/A   Overcast
7:35 AM 62.6 °F - 60.8 °F 94% 30.14 in 0.5 mi Calm Calm - N/A Fog Fog
7:55 AM 62.6 °F - 60.8 °F 94% 30.15 in 0.2 mi NNE 3.5 mph - N/A Fog Fog
8:15 AM 62.6 °F - 60.8 °F 94% 30.15 in 0.2 mi Calm Calm - N/A Fog Fog
8:35 AM 62.6 °F - 60.8 °F 94% 30.16 in 0.2 mi East 3.5 mph - N/A Fog Fog
8:55 AM 62.6 °F - 60.8 °F 94% 30.17 in 0.2 mi East 5.8 mph - N/A Fog Fog
9:15 AM 62.6 °F - 62.6 °F 100% 30.17 in 0.2 mi East 4.6 mph - N/A Fog Fog
9:35 AM 64.4 °F - 62.6 °F 94% 30.18 in 0.2 mi East 4.6 mph - N/A Fog Fog
9:55 AM 64.4 °F - 62.6 °F 94% 30.18 in 0.2 mi ENE 3.5 mph - N/A Fog Fog
10:15 AM 64.4 °F - 64.4 °F 100% 30.18 in 1.0 mi East 4.6 mph - N/A   Overcast
10:35 AM 66.2 °F - 64.4 °F 94% 30.18 in 1.5 mi ENE 5.8 mph - N/A   Overcast
10:55 AM 68.0 °F - 66.2 °F 94% 30.18 in 4.0 mi ENE 3.5 mph - N/A   Overcast
11:15 AM 68.0 °F - 66.2 °F 94% 30.17 in 7.0 mi Calm Calm - N/A   Overcast
11:35 AM 69.8 °F - 68.0 °F 94% 30.16 in 10.0 mi East 4.6 mph - N/A   Overcast
11:55 AM 69.8 °F - 68.0 °F 94% 30.16 in 10.0 mi ESE 3.5 mph - N/A   Overcast
12:15 PM 71.6 °F - 69.8 °F 94% 30.15 in 10.0 mi Calm Calm - N/A   Mostly Cloudy
12:35 PM 73.4 °F - 69.8 °F 88% 30.13 in 10.0 mi Calm Calm - N/A   Scattered Clouds
12:55 PM 77.0 °F - 64.4 °F 65% 30.12 in 10.0 mi SE 4.6 mph - N/A   Scattered Clouds
1:15 PM 78.8 °F - 64.4 °F 61% 30.11 in 10.0 mi SW 4.6 mph - N/A   Scattered Clouds
1:35 PM 80.6 °F 82.3 °F 64.4 °F 58% 30.10 in 10.0 mi South 4.6 mph - N/A   Scattered Clouds
1:55 PM 78.8 °F - 64.4 °F 61% 30.09 in 10.0 mi WSW 5.8 mph - N/A   Mostly Cloudy
2:15 PM 78.8 °F - 64.4 °F 61% 30.09 in 10.0 mi SW 3.5 mph - N/A   Mostly Cloudy
2:35 PM 80.6 °F 82.3 °F 64.4 °F 58% 30.08 in 10.0 mi West 9.2 mph - N/A   Scattered Clouds
2:55 PM 78.8 °F - 64.4 °F 61% 30.08 in 10.0 mi West 9.2 mph - N/A   Clear
3:15 PM 78.8 °F - 64.4 °F 61% 30.07 in 10.0 mi WNW 5.8 mph - N/A   Clear
3:35 PM 78.8 °F - 64.4 °F 61% 30.07 in 10.0 mi WNW 4.6 mph - N/A   Clear
3:55 PM 78.8 °F - 64.4 °F 61% 30.07 in 10.0 mi West 5.8 mph - N/A   Clear
4:15 PM 77.0 °F - 64.4 °F 65% 30.07 in 10.0 mi West 5.8 mph - N/A   Clear
4:35 PM 77.0 °F - 64.4 °F 65% 30.07 in 10.0 mi West 4.6 mph - N/A   Clear
4:55 PM 77.0 °F - 64.4 °F 65% 30.06 in 10.0 mi West 4.6 mph - N/A   Clear
5:15 PM 75.2 °F - 64.4 °F 69% 30.07 in 10.0 mi WNW 3.5 mph - N/A   Clear
5:35 PM 73.4 °F - 64.4 °F 73% 30.07 in 10.0 mi NW 3.5 mph - N/A   Clear
5:55 PM 71.6 °F - 64.4 °F 78% 30.07 in 10.0 mi Calm Calm - N/A   Clear
6:15 PM 71.6 °F - 64.4 °F 78% 30.07 in 10.0 mi West 3.5 mph - N/A   Clear
6:35 PM 69.8 °F - 64.4 °F 83% 30.07 in 10.0 mi Calm Calm - N/A   Clear
6:55 PM 69.8 °F - 64.4 °F 83% 30.08 in 10.0 mi Calm Calm - N/A   Clear
7:15 PM 68.0 °F - 64.4 °F 88% 30.08 in 10.0 mi Calm Calm - N/A   Clear
7:35 PM 66.2 °F - 64.4 °F 94% 30.08 in 10.0 mi Calm Calm - N/A   Clear
7:55 PM 66.2 °F - 64.4 °F 94% 30.08 in 10.0 mi Calm Calm - N/A   Clear
8:15 PM 64.4 °F - 62.6 °F 94% 30.08 in 10.0 mi Calm Calm - N/A   Clear
8:35 PM 64.4 °F - 62.6 °F 94% 30.09 in 10.0 mi Calm Calm - N/A   Mostly Cloudy
8:55 PM 64.4 °F - 62.6 °F 94% 30.09 in 10.0 mi Calm Calm - N/A   Scattered Clouds
9:15 PM 64.4 °F - 62.6 °F 94% 30.09 in 10.0 mi Calm Calm - N/A   Scattered Clouds
9:35 PM 62.6 °F - 62.6 °F 100% 30.09 in 10.0 mi Calm Calm - N/A   Mostly Cloudy
9:55 PM 64.4 °F - 62.6 °F 94% 30.09 in 10.0 mi Calm Calm - N/A   Overcast
10:15 PM 64.4 °F - 62.6 °F 94% 30.09 in 10.0 mi Calm Calm - N/A   Overcast
10:35 PM 64.4 °F - 62.6 °F 94% 30.09 in 10.0 mi Calm Calm - N/A   Scattered Clouds
10:55 PM 62.6 °F - 60.8 °F 94% 30.09 in 10.0 mi Calm Calm - N/A   Clear
11:15 PM 62.6 °F - 60.8 °F 94% 30.09 in 7.0 mi Calm Calm - N/A   Clear
11:35 PM 60.8 °F - 60.8 °F 100% 30.08 in 7.0 mi Calm Calm - N/A   Clear
11:55 PM 60.8 °F - 59.0 °F 94% 30.08 in 7.0 mi Calm Calm - N/A   Clear